Shenandoah, IA

11:46 PM CST on February 21, 2018 (GMT -0600)
Shenandoah Municipal

Weather History for KSDA - May, 2014

Change the Weather History Date:

Thursday, May 15, 2014

  Actual Average Record
Temperature  
Mean Temperature 47 °F -  
Max Temperature 55 °F 76 °F 96 °F (2001)
Min Temperature 39 °F 50 °F 31 °F (1959)
Degree Days  
Heating Degree Days 18    
Moisture  
Dew Point 30 °F    
Average Humidity 51    
Maximum Humidity 75    
Minimum Humidity 33    
Precipitation  
Precipitation 0.00 in - - ()
Sea Level Pressure  
Sea Level Pressure 30.17 in    
Wind  
Wind Speed 13 mph (NNW)    
Max Wind Speed 21 mph    
Max Gust Speed 31 mph    
Visibility 10 miles    
Events      
Averages and records for this station are not official NWS values.
T = Trace of Precipitation, MM = Missing Value Source: NWS Daily Summary

Daily Weather History Graph

Daily Weather History Graph

Search for Another Location

Airport or City:

Trip Planner

Search our weather history database for the weather conditions in past years. The results will help you decide how hot, cold, wet, or windy it might be!

Date:

Astronomy

May. 15, 2014 Rise Set
Actual Time 6:04 AM CDT 8:32 PM CDT
Civil Twilight 5:33 AM CDT 9:03 PM CDT
Nautical Twilight 4:54 AM CDT 9:42 PM CDT
Astronomical Twilight 4:11 AM CDT 10:25 PM CDT
Moon 9:41 PM CDT (5/15) 6:52 AM CDT (5/15)
Length of Visible Light 15h 29m
Length of Day
14h 27m
Full, 99% of the Moon is Illuminated
May 15
Full
May 21
Last Quarter
May 28
New
Jun 5
First Quarter
Jun 12
Full

Hourly Weather History & Observations

Time (CDT) Temp. Windchill Dew Point Humidity Pressure Visibility Wind Dir Wind Speed Gust Speed Precip Events Conditions
12:15 AM 51.8 °F - 41.0 °F 67% 30.14 in 10.0 mi North 8.1 mph - N/A   Overcast
12:35 AM 51.8 °F - 42.8 °F 71% 30.15 in 10.0 mi North 10.4 mph - N/A   Overcast
12:55 AM 51.8 °F - 41.0 °F 67% 30.15 in 10.0 mi North 19.6 mph - N/A   Overcast
1:15 AM 50.0 °F - 35.6 °F 58% 30.16 in 10.0 mi NNE 17.3 mph 27.6 mph N/A   Overcast
1:35 AM 48.2 °F - 33.8 °F 58% 30.16 in 10.0 mi NNE 19.6 mph 31.1 mph N/A   Overcast
1:55 AM 48.2 °F - 33.8 °F 58% 30.16 in 10.0 mi North 18.4 mph 25.3 mph N/A   Overcast
2:15 AM 48.2 °F - 32.0 °F 54% 30.16 in 10.0 mi North 18.4 mph 25.3 mph N/A   Overcast
2:35 AM 48.2 °F - 33.8 °F 58% 30.17 in 10.0 mi North 15.0 mph 21.9 mph N/A   Overcast
2:55 AM 48.2 °F - 32.0 °F 54% 30.17 in 10.0 mi North 18.4 mph 25.3 mph N/A   Overcast
3:15 AM 46.4 °F 41.5 °F 33.8 °F 62% 30.17 in 10.0 mi North 10.4 mph 17.3 mph N/A   Overcast
3:35 AM 46.4 °F 40.4 °F 30.2 °F 53% 30.17 in 10.0 mi North 13.8 mph - N/A   Overcast
3:55 AM 46.4 °F 40.4 °F 30.2 °F 53% 30.17 in 10.0 mi North 13.8 mph - N/A   Overcast
4:15 AM 46.4 °F 41.5 °F 30.2 °F 53% 30.17 in - North 10.4 mph - N/A   Overcast
4:35 AM 44.6 °F 39.2 °F 32.0 °F 61% 30.16 in 10.0 mi North 10.4 mph - N/A   Overcast
4:55 AM 44.6 °F 39.7 °F 30.2 °F 57% 30.16 in 10.0 mi North 9.2 mph 16.1 mph N/A   Mostly Cloudy
5:15 AM 42.8 °F 38.6 °F 32.0 °F 66% 30.16 in 10.0 mi North 6.9 mph - N/A   Clear
5:35 AM 41.0 °F 36.4 °F 32.0 °F 70% 30.16 in 10.0 mi NNW 6.9 mph - N/A   Clear
5:55 AM 41.0 °F 37.1 °F 32.0 °F 70% 30.17 in 10.0 mi NNW 5.8 mph - N/A   Clear
6:15 AM 39.2 °F 35.0 °F 32.0 °F 75% 30.17 in 10.0 mi NNW 5.8 mph - N/A   Clear
6:35 AM 39.2 °F 34.2 °F 32.0 °F 75% 30.17 in 10.0 mi NNW 6.9 mph - N/A   Clear
6:55 AM 41.0 °F 35.8 °F 32.0 °F 70% 30.18 in 10.0 mi NNW 8.1 mph - N/A   Clear
7:15 AM 41.0 °F 35.2 °F 32.0 °F 70% 30.18 in 10.0 mi NNW 9.2 mph - N/A   Clear
7:35 AM 42.8 °F 36.6 °F 30.2 °F 61% 30.19 in 10.0 mi NNW 11.5 mph - N/A   Clear
7:55 AM 42.8 °F 37.0 °F 30.2 °F 61% 30.19 in 10.0 mi NNW 10.4 mph - N/A   Clear
8:15 AM 44.6 °F 37.8 °F 30.2 °F 57% 30.19 in 10.0 mi NNW 15.0 mph - N/A   Clear
8:35 AM 44.6 °F 37.8 °F 30.2 °F 57% 30.20 in 10.0 mi NNW 15.0 mph 20.7 mph N/A   Clear
8:55 AM 44.6 °F 37.4 °F 28.4 °F 53% 30.20 in 10.0 mi NNW 16.1 mph 23.0 mph N/A   Clear
9:15 AM 46.4 °F 40.1 °F 30.2 °F 53% 30.20 in 10.0 mi NNW 15.0 mph 21.9 mph N/A   Clear
9:35 AM 46.4 °F 38.7 °F 28.4 °F 50% 30.20 in 10.0 mi NNW 20.7 mph 28.8 mph N/A   Clear
9:55 AM 48.2 °F - 28.4 °F 46% 30.20 in 10.0 mi NNW 17.3 mph 27.6 mph N/A   Clear
10:15 AM 48.2 °F - 28.4 °F 46% 30.20 in 10.0 mi NNW 18.4 mph 28.8 mph N/A   Clear
10:35 AM 50.0 °F - 30.2 °F 47% 30.19 in 10.0 mi NNW 17.3 mph 24.2 mph N/A   Clear
10:55 AM 50.0 °F - 28.4 °F 43% 30.19 in 10.0 mi NNW 19.6 mph - N/A   Clear
11:15 AM 50.0 °F - 28.4 °F 43% 30.19 in 10.0 mi North 16.1 mph 28.8 mph N/A   Partly Cloudy
11:35 AM 51.8 °F - 28.4 °F 41% 30.19 in 10.0 mi NNW 20.7 mph 28.8 mph N/A   Partly Cloudy
11:55 AM 51.8 °F - 28.4 °F 41% 30.19 in 10.0 mi NNW 18.4 mph 28.8 mph N/A   Partly Cloudy
12:35 PM 53.6 °F - 28.4 °F 38% 30.18 in 10.0 mi NNW 20.7 mph 27.6 mph N/A   Partly Cloudy
12:55 PM 51.8 °F - 28.4 °F 41% 30.18 in 10.0 mi NW 12.7 mph 26.5 mph N/A   Mostly Cloudy
1:15 PM 53.6 °F - 28.4 °F 38% 30.17 in 10.0 mi NW 15.0 mph 25.3 mph N/A   Scattered Clouds
2:15 PM 53.6 °F - 28.4 °F 38% 30.16 in 10.0 mi NW 13.8 mph 25.3 mph N/A   Mostly Cloudy
2:35 PM 53.6 °F - 26.6 °F 35% 30.16 in - NNW 17.3 mph - N/A   Mostly Cloudy
2:55 PM 55.4 °F - 28.4 °F 36% 30.16 in 10.0 mi NW 17.3 mph 27.6 mph N/A   Mostly Cloudy
3:15 PM 53.6 °F - 26.6 °F 35% 30.15 in 10.0 mi NW 11.5 mph 21.9 mph N/A   Overcast
3:35 PM 53.6 °F - 26.6 °F 35% 30.15 in 10.0 mi NNW 11.5 mph 25.3 mph N/A   Mostly Cloudy
3:55 PM 53.6 °F - 26.6 °F 35% 30.15 in 10.0 mi NW 18.4 mph - N/A   Scattered Clouds
4:15 PM 55.4 °F - 26.6 °F 33% 30.15 in 10.0 mi NW 13.8 mph 21.9 mph N/A   Mostly Cloudy
4:35 PM 53.6 °F - 26.6 °F 35% 30.14 in 10.0 mi NNW 16.1 mph - N/A   Mostly Cloudy
4:55 PM 53.6 °F - 26.6 °F 35% 30.14 in 10.0 mi NNW 16.1 mph 23.0 mph N/A   Mostly Cloudy
5:15 PM 53.6 °F - 26.6 °F 35% 30.14 in 10.0 mi NNW 12.7 mph 20.7 mph N/A   Mostly Cloudy
5:35 PM 51.8 °F - 26.6 °F 38% 30.14 in 10.0 mi NNW 12.7 mph 23.0 mph N/A   Mostly Cloudy
5:55 PM 53.6 °F - 26.6 °F 35% 30.14 in 10.0 mi NNW 16.1 mph 23.0 mph N/A   Scattered Clouds
6:15 PM 53.6 °F - 26.6 °F 35% 30.14 in 10.0 mi NNW 16.1 mph - N/A   Partly Cloudy
6:35 PM 51.8 °F - 26.6 °F 38% 30.14 in 10.0 mi NNW 15.0 mph 20.7 mph N/A   Partly Cloudy
6:55 PM 53.6 °F - 26.6 °F 35% 30.14 in 10.0 mi North 13.8 mph - N/A   Partly Cloudy
7:15 PM 53.6 °F - 26.6 °F 35% 30.14 in 10.0 mi NNW 11.5 mph 18.4 mph N/A   Clear
7:35 PM 51.8 °F - 26.6 °F 38% 30.15 in 10.0 mi North 13.8 mph 20.7 mph N/A   Clear
7:55 PM 50.0 °F - 26.6 °F 40% 30.15 in 10.0 mi NNW 13.8 mph - N/A   Clear
8:15 PM 50.0 °F - 26.6 °F 40% 30.15 in 10.0 mi North 11.5 mph - N/A   Clear
8:35 PM 48.2 °F - 26.6 °F 43% 30.16 in 10.0 mi North 11.5 mph - N/A   Clear
8:55 PM 46.4 °F 42.4 °F 26.6 °F 46% 30.16 in 10.0 mi North 8.1 mph - N/A   Clear
9:15 PM 44.6 °F 40.7 °F 28.4 °F 53% 30.16 in 10.0 mi North 6.9 mph - N/A   Clear
9:35 PM 44.6 °F 40.7 °F 28.4 °F 53% 30.17 in 10.0 mi North 6.9 mph - N/A   Clear
9:55 PM 42.8 °F 39.3 °F 28.4 °F 57% 30.17 in 10.0 mi North 5.8 mph - N/A   Clear
10:15 PM 42.8 °F 38.0 °F 28.4 °F 57% 30.18 in 10.0 mi North 8.1 mph - N/A   Clear
10:35 PM 42.8 °F 38.0 °F 28.4 °F 57% 30.18 in 10.0 mi North 8.1 mph - N/A   Clear
10:55 PM 42.8 °F 38.6 °F 28.4 °F 57% 30.17 in 10.0 mi North 6.9 mph - N/A   Clear
11:15 PM 41.0 °F 37.1 °F 28.4 °F 61% 30.17 in 10.0 mi North 5.8 mph - N/A   Clear
11:35 PM 41.0 °F 37.1 °F 28.4 °F 61% 30.17 in 10.0 mi North 5.8 mph - N/A   Clear
11:55 PM 41.0 °F 37.1 °F 28.4 °F 61% 30.17 in 10.0 mi North 5.8 mph - N/A   Clear